Regional Weather Roundup
Issued by NWS Mt. Holly, NJ

Home | Current Version | Previous Version | Text Only | Print | Product List | Glossary On
Versions: 1 2 3 4 5 6 7 8 9 10 11 12 13 14 15 16 17 18 19 20 21 22 23 24 25 26 27 28 29 30 31 32 33 34 35 36 37 38 39 40 41 42 43 44 45 46 47 48 49 50
000
ASUS41 KPHI 211510
RWRPHI

REGIONAL WEATHER ROUNDUP
NATIONAL WEATHER SERVICE MOUNT HOLLY NJ
1100 AM EDT THU AUG 21 2014

NOTE:  "FAIR" INDICATES FEW OR NO CLOUDS BELOW 12,000 FEET WITH NO
SIGNIFICANT WEATHER AND/OR OBSTRUCTIONS TO VISIBILITY.

 * = STATION DOES NOT REPORT PRECIPITATION (E.G. RAIN, SNOW, ETC.)
        OR FOG.

NJZ015>026-211600-
SOUTHERN NEW JERSEY

CITY           SKY/WX    TMP DP  RH WIND       PRES   REMARKS
POMONA         SUNNY     79  62  56 S6        30.06S
RIO GRANDE*    PTSUNNY   79  66  65 SE8       30.07S
MILLVILLE      PTSUNNY   78  66  66 CALM      30.06S
WRIGHTSTOWN    MOSUNNY   79  63  57 VRB5      30.03F
MOUNT HOLLY    SUNNY     78  59  51 CALM      30.05S
TRENTON        SUNNY     78  58  49 S12G20    30.05F

$$
NJZ001>014-211600-
NORTHERN NEW JERSEY

CITY           SKY/WX    TMP DP  RH WIND       PRES   REMARKS
SUSSEX         PTSUNNY   78  62  57 VRB3      30.05F
ANDOVER*         N/A     76  60  57 SW7       30.06S
MORRISTOWN     MOSUNNY   77  63  61 S5        30.07F
NEWARK         MOSUNNY   79  59  50 S5        30.06S
TETERBORO      PTSUNNY   79  57  46 S9        30.05F
CALDWELL       SUNNY     76  59  55 VRB5      30.06F
SOMERVILLE     MOSUNNY   77  60  55 S6        30.04S
ALLAIRE*       PTSUNNY   77  64  65 SE8       30.07S
TOMS RIVER*    CLOUDY    79  63  57 S3        30.07S

$$
PAZ043-044-047-054-055-060>062-066>071-211600-
EASTERN PENNSYLVANIA

CITY           SKY/WX    TMP DP  RH WIND       PRES   REMARKS
PHILADELPHIA   PTSUNNY   78  66  66 S5        30.06S
NORTH PHILA    MOSUNNY   79  61  53 S5        30.07S
BLUE BELL      MOSUNNY   79  66  65 CALM      30.05F
DOYLESTOWN     MOSUNNY   78  61  55 SW7       30.05F
QUAKERTOWN*    CLOUDY    73  66  78 MISG      30.08S
POTTSTOWN      CLOUDY    73  67  81 CALM      30.08S
LANCASTER      CLOUDY    76  68  76 VRB3      30.06R
COATESVILLE    CLOUDY    72  72 100 W3        30.08S
READING        CLOUDY    75  67  76 SE3       30.05S
ALLENTOWN      CLOUDY    74  65  73 SW3       30.06S
MOUNT POCONO   CLOUDY    67  64  90 W7        30.10S
HAZLETON       PTSUNNY   73  64  73 CALM      30.11S
WILKES BARRE   MOSUNNY   77  65  66 VRB6      30.04F

$$
DEZALL-MDZ008-012-015-019-020-211600-
DELAWARE AND EASTERN MARYLAND

CITY           SKY/WX    TMP DP  RH WIND       PRES   REMARKS
WILMINGTON     CLOUDY    77  69  76 VRB3      30.06S
DOVER          CLOUDY    78  73  83 S2        30.04S
GEORGETOWN     MOSUNNY   79  70  74 VRB6      30.05F
EASTON         PTSUNNY   82  73  74 CALM      30.08S
PATUXENT       MOSUNNY   82  71  69 CALM      30.03F
OCEAN CITY     CLOUDY    76  70  82 SE8       30.06S
WALLOPS ISLAND PTSUNNY   82  74  76 SE7       30.05S
CAMBRIDGE      MOSUNNY   81  70  69 S3        30.04S
SALISBURY      PTSUNNY   82  72  69 CALM      30.04F

$$
PAZ001-021-NYZ056-072-MDZ011-DCZ001-211600-
OTHER NEARBY LOCATIONS

CITY           SKY/WX    TMP DP  RH WIND       PRES   REMARKS
HARRISBURG     MOSUNNY   79  68  69 CALM      30.04S
STATE COLLEGE  PTSUNNY   72  68  88 SW5       30.07S
WILLIAMSPORT   CLOUDY    76  68  76 VRB3      30.02S
BINGHAMTON     PTSUNNY   72  67  84 SW8       30.04S
NEW YORK CITY  MOSUNNY   77  62  59 VRB3      30.08F
BALTIMORE      MOSUNNY   79  70  74 W3        30.04S
WASHINGTON DC  MOSUNNY   80  70  71 S5        30.06R

$$


USA.gov is the U.S. government's official web portal to all federal, state and local government web resources and services.